This is the latest recevied weather packets stored in our database for station/object K4VEB. If no packets are shown the sender has not sent any weather packets the latest 10 day(s).
| Time | Temp. | Humidity | Pressure | Rain* | Wind** | Luminosity | Snow |
|---|---|---|---|---|---|---|---|
| 1777422307 | 25° C | 66% | 1017.3 hPa | 0 mm | - | 0 W/m² | - |
| 1777422007 | 25° C | 66% | 1017.5 hPa | 0 mm | - | 0 W/m² | - |
| 1777421701 | 25.56° C | 65% | 1017.3 hPa | 0 mm | - | 0 W/m² | - |
| 1777421396 | 25.56° C | 65% | 1017.2 hPa | 0 mm | - | 1 W/m² | - |
| 1777421093 | 25.56° C | 64% | 1017.2 hPa | 0 mm | - | 2 W/m² | - |
| 1777420789 | 25.56° C | 64% | 1017.1 hPa | 0 mm | - | 4 W/m² | - |
| 1777420485 | 26.11° C | 64% | 1017.3 hPa | 0 mm | - | 8 W/m² | - |
| 1777420183 | 26.11° C | 63% | 1017.3 hPa | 0 mm | - | 11 W/m² | - |
| 1777419878 | 26.11° C | 63% | 1017.4 hPa | 0 mm | - | 15 W/m² | - |
| 1777419576 | 26.67° C | 63% | 1017.3 hPa | 0 mm | - | 19 W/m² | - |
| 1777419274 | 26.67° C | 62% | 1017.2 hPa | 0 mm | - | 22 W/m² | - |
| 1777418972 | 26.67° C | 62% | 1017.3 hPa | 0 mm | - | 27 W/m² | - |
| 1777418667 | 27.22° C | 60% | 1017.4 hPa | 0 mm | - | 33 W/m² | - |
| 1777418363 | 27.22° C | 60% | 1017.5 hPa | 0 mm | - | 41 W/m² | - |
| 1777418059 | 27.22° C | 60% | 1017.5 hPa | 0 mm | - | 54 W/m² | - |
| 1777417756 | 27.22° C | 60% | 1017.6 hPa | 0 mm | - | 62 W/m² | - |
| 1777417451 | 27.22° C | 60% | 1017.4 hPa | 0 mm | - | 73 W/m² | - |
| 1777417148 | 27.78° C | 60% | 1017.3 hPa | 0 mm | - | 84 W/m² | - |
| 1777416843 | 27.78° C | 59% | 1017.4 hPa | 0 mm | - | 98 W/m² | - |
| 1777416539 | 27.78° C | 58% | 1017.1 hPa | 0 mm | - | 108 W/m² | - |
| 1777416236 | 27.78° C | 58% | 1017.4 hPa | 0 mm | - | 122 W/m² | - |
| 1777415934 | 27.78° C | 58% | 1017.3 hPa | 0 mm | - | 134 W/m² | - |
| 1777415631 | 28.33° C | 57% | 1017.4 hPa | 0 mm | - | 161 W/m² | - |
| 1777415326 | 28.33° C | 57% | 1017.5 hPa | 0 mm | - | 180 W/m² | - |
| 1777415022 | 28.33° C | 57% | 1017.3 hPa | 0 mm | - | 205 W/m² | - |
* Rain latest hour (hover to see other rain measurements)
** Current wind speed in m/s (hover to see current wind gust speed)